Time,TemperatureF,DewpointF,PressureIn,WindDirection,WindDirectionDegrees,WindSpeedMPH,WindSpeedGustMPH,Humidity,HourlyPrecipIn,Conditions,Clouds,dailyrainin,SoftwareType,DateUTC
2013-04-07 00:00:00,56.0,36.6,29.05,NE,43,0.0,0.0,48,0.00,CLR,SKC,0.00,WeatherDisplay:10.37,2013-04-07 04:00:00,
2013-04-07 00:01:00,56.1,36.7,29.04,NW,315,0.0,0.0,48,0.00,CLR,SKC,0.00,WeatherDisplay:10.37,2013-04-07 04:01:00,
2013-04-07 00:07:00,56.1,36.7,29.05,NW,315,0.0,0.0,48,0.00,CLR,SKC,0.00,WeatherDisplay:10.37,2013-04-07 04:07:00,
2013-04-07 00:12:00,55.8,36.4,29.05,North,0,0.0,0.0,48,0.00,CLR,SKC,0.00,WeatherDisplay:10.37,2013-04-07 04:12:00,
2013-04-07 00:17:00,55.4,36.5,29.05,NW,315,0.0,0.0,49,0.00,CLR,SKC,0.00,WeatherDisplay:10.37,2013-04-07 04:17:00,
2013-04-07 00:22:00,55.0,36.7,29.05,North,0,0.0,0.0,50,0.00,CLR,SKC,0.00,WeatherDisplay:10.37,2013-04-07 04:22:00,
2013-04-07 00:27:00,54.5,37.2,29.05,North,0,0.0,0.0,52,0.00,CLR,SKC,0.00,WeatherDisplay:10.37,2013-04-07 04:27:00,
2013-04-07 00:32:00,54.1,36.9,29.05,North,0,0.0,0.0,52,0.00,CLR,SKC,0.00,WeatherDisplay:10.37,2013-04-07 04:32:00,
2013-04-07 00:37:00,54.0,37.2,29.05,North,0,1.1,0.0,53,0.00,CLR,SKC,0.00,WeatherDisplay:10.37,2013-04-07 04:37:00,
2013-04-07 00:42:00,53.8,37.0,29.06,North,0,0.0,0.0,53,0.00,CLR,SKC,0.00,WeatherDisplay:10.37,2013-04-07 04:42:00,
2013-04-07 00:47:00,53.6,36.9,29.05,NE,45,0.0,0.0,53,0.00,CLR,SKC,0.00,WeatherDisplay:10.37,2013-04-07 04:47:00,
2013-04-07 00:52:00,53.4,37.2,29.05,SW,225,0.0,0.0,54,0.00,CLR,SKC,0.00,WeatherDisplay:10.37,2013-04-07 04:52:00,
2013-04-07 00:57:00,52.9,37.1,29.05,North,0,0.0,0.0,55,0.00,CLR,SKC,0.00,WeatherDisplay:10.37,2013-04-07 04:57:00,
2013-04-07 01:03:00,52.7,37.4,29.06,North,0,0.0,0.0,56,0.00,CLR,SKC,0.00,WeatherDisplay:10.37,2013-04-07 05:03:00,
2013-04-07 01:08:00,52.5,37.7,29.06,North,0,0.0,0.0,57,0.00,CLR,SKC,0.00,WeatherDisplay:10.37,2013-04-07 05:08:00,
2013-04-07 01:13:00,52.2,38.7,29.06,South,180,0.0,0.0,60,0.00,CLR,SKC,0.00,WeatherDisplay:10.37,2013-04-07 05:13:00,
2013-04-07 01:18:00,51.4,38.0,29.06,South,180,1.1,0.0,60,0.00,CLR,SKC,0.00,WeatherDisplay:10.37,2013-04-07 05:18:00,
2013-04-07 01:23:00,50.9,37.9,29.06,NW,315,0.0,0.0,61,0.00,CLR,SKC,0.00,WeatherDisplay:10.37,2013-04-07 05:23:00,
2013-04-07 01:28:00,50.4,38.6,29.07,North,0,0.0,0.0,64,0.00,CLR,SKC,0.00,WeatherDisplay:10.37,2013-04-07 05:28:00,
2013-04-07 01:33:00,50.0,38.7,29.07,South,180,0.0,0.0,65,0.00,CLR,SKC,0.00,WeatherDisplay:10.37,2013-04-07 05:33:00,
2013-04-07 01:38:00,49.8,38.5,29.07,South,180,1.1,0.0,65,0.00,CLR,SKC,0.00,WeatherDisplay:10.37,2013-04-07 05:38:00,
2013-04-07 01:43:00,49.5,38.2,29.07,SW,225,0.0,0.0,65,0.00,CLR,SKC,0.00,WeatherDisplay:10.37,2013-04-07 05:43:00,
2013-04-07 01:48:00,49.1,38.6,29.06,South,180,1.1,0.0,67,0.00,CLR,SKC,0.00,WeatherDisplay:10.37,2013-04-07 05:48:00,
2013-04-07 01:53:00,48.7,38.3,29.06,South,180,0.0,0.0,67,0.00,CLR,SKC,0.00,WeatherDisplay:10.37,2013-04-07 05:53:00,
2013-04-07 01:59:00,48.2,38.1,29.06,South,180,0.0,0.0,68,0.00,CLR,SKC,0.00,WeatherDisplay:10.37,2013-04-07 05:59:00,
2013-04-07 02:04:00,48.2,38.5,29.06,South,180,0.0,0.0,69,0.00,CLR,SKC,0.00,WeatherDisplay:10.37,2013-04-07 06:04:00,
2013-04-07 02:09:00,48.0,38.0,29.06,North,0,1.1,0.0,68,0.00,CLR,SKC,0.00,WeatherDisplay:10.37,2013-04-07 06:09:00,
2013-04-07 02:14:00,48.0,38.0,29.06,North,0,0.0,0.0,68,0.00,CLR,SKC,0.00,WeatherDisplay:10.37,2013-04-07 06:14:00,
2013-04-07 02:20:00,47.5,37.8,29.06,South,180,1.1,0.0,69,0.00,CLR,SKC,0.00,WeatherDisplay:10.37,2013-04-07 06:20:00,
2013-04-07 02:25:00,47.1,38.2,29.07,South,180,0.0,0.0,71,0.00,CLR,SKC,0.00,WeatherDisplay:10.37,2013-04-07 06:25:00,
2013-04-07 02:30:00,46.9,38.7,29.06,South,180,0.0,0.0,73,0.00,CLR,SKC,0.00,WeatherDisplay:10.37,2013-04-07 06:30:00,
2013-04-07 02:35:00,46.4,38.2,29.07,North,0,1.1,0.0,73,0.00,CLR,SKC,0.00,WeatherDisplay:10.37,2013-04-07 06:35:00,
2013-04-07 02:40:00,46.2,38.7,29.06,North,0,0.0,0.0,75,0.00,CLR,SKC,0.00,WeatherDisplay:10.37,2013-04-07 06:40:00,
2013-04-07 02:45:00,46.2,38.7,29.06,South,180,1.1,0.0,75,0.00,CLR,SKC,0.00,WeatherDisplay:10.37,2013-04-07 06:45:00,
2013-04-07 02:50:00,46.2,38.7,29.06,North,0,1.1,0.0,75,0.00,CLR,SKC,0.00,WeatherDisplay:10.37,2013-04-07 06:50:00,
2013-04-07 02:55:00,46.2,38.7,29.06,North,0,0.0,0.0,75,0.00,CLR,SKC,0.00,WeatherDisplay:10.37,2013-04-07 06:55:00,
2013-04-07 03:00:00,46.2,38.7,29.06,SE,135,0.0,0.0,75,0.00,CLR,SKC,0.00,WeatherDisplay:10.37,2013-04-07 07:00:00,
2013-04-07 03:05:00,45.9,38.0,29.07,SE,135,0.0,0.0,74,0.00,CLR,SKC,0.00,WeatherDisplay:10.37,2013-04-07 07:05:00,
2013-04-07 03:10:00,45.7,37.9,29.06,East,89,0.0,1.0,74,0.00,CLR,SKC,0.00,WeatherDisplay:10.37,2013-04-07 07:10:00,
2013-04-07 03:15:00,45.5,38.0,29.06,North,0,1.1,0.0,75,0.00,CLR,SKC,0.00,WeatherDisplay:10.37,2013-04-07 07:15:00,
2013-04-07 03:20:00,45.7,38.5,29.06,North,0,1.1,0.0,76,0.00,CLR,SKC,0.00,WeatherDisplay:10.37,2013-04-07 07:20:00,
2013-04-07 03:25:00,45.7,38.9,29.07,South,180,0.0,0.0,77,0.00,CLR,SKC,0.00,WeatherDisplay:10.37,2013-04-07 07:25:00,
2013-04-07 03:30:00,45.6,38.8,29.07,SW,236,0.0,1.0,77,0.00,CLR,SKC,0.00,WeatherDisplay:10.37,2013-04-07 07:30:00,
2013-04-07 03:35:00,45.3,38.5,29.07,SE,135,0.0,0.0,77,0.00,CLR,SKC,0.00,WeatherDisplay:10.37,2013-04-07 07:35:00,
2013-04-07 03:40:00,45.1,38.7,29.07,SW,225,1.1,0.0,78,0.00,CLR,SKC,0.00,WeatherDisplay:10.37,2013-04-07 07:40:00,
2013-04-07 03:45:00,45.0,38.8,29.08,West,270,1.1,0.0,79,0.00,CLR,SKC,0.00,WeatherDisplay:10.37,2013-04-07 07:45:00,
2013-04-07 03:50:00,44.8,38.7,29.08,West,270,1.1,0.0,79,0.00,CLR,SKC,0.00,WeatherDisplay:10.37,2013-04-07 07:50:00,
2013-04-07 03:55:00,44.6,38.5,29.08,North,0,1.1,0.0,79,0.00,CLR,SKC,0.00,WeatherDisplay:10.37,2013-04-07 07:55:00,
2013-04-07 04:00:00,44.6,38.5,29.07,NE,45,1.1,0.0,79,0.00,CLR,SKC,0.00,WeatherDisplay:10.37,2013-04-07 08:00:00,
2013-04-07 04:05:00,44.6,38.5,29.08,NE,45,0.0,0.0,79,0.00,CLR,SKC,0.00,WeatherDisplay:10.37,2013-04-07 08:05:00,
2013-04-07 04:10:00,44.1,38.0,29.08,SW,225,0.0,0.0,79,0.00,CLR,SKC,0.00,WeatherDisplay:10.37,2013-04-07 08:10:00,
2013-04-07 04:16:00,43.9,38.4,29.08,South,180,1.1,0.0,81,0.00,CLR,SKC,0.00,WeatherDisplay:10.37,2013-04-07 08:16:00,
2013-04-07 04:21:00,43.7,38.6,29.08,South,180,0.0,0.0,82,0.00,CLR,SKC,0.00,WeatherDisplay:10.37,2013-04-07 08:21:00,
2013-04-07 04:26:00,43.3,38.2,29.08,South,180,0.0,0.0,82,0.00,CLR,SKC,0.00,WeatherDisplay:10.37,2013-04-07 08:26:00,
2013-04-07 04:31:00,43.0,37.9,29.08,NW,315,1.1,0.0,82,0.00,CLR,SKC,0.00,WeatherDisplay:10.37,2013-04-07 08:31:00,
2013-04-07 04:36:00,42.6,37.5,29.09,North,0,0.0,0.0,82,0.00,CLR,SKC,0.00,WeatherDisplay:10.37,2013-04-07 08:36:00,
2013-04-07 04:41:00,42.6,37.8,29.08,NE,45,0.0,0.0,83,0.00,CLR,SKC,0.00,WeatherDisplay:10.37,2013-04-07 08:41:00,
2013-04-07 04:46:00,42.6,38.1,29.09,NE,45,1.1,0.0,84,0.00,CLR,SKC,0.00,WeatherDisplay:10.37,2013-04-07 08:46:00,
2013-04-07 04:51:00,42.4,37.9,29.09,NE,45,1.1,0.0,84,0.00,CLR,SKC,0.00,WeatherDisplay:10.37,2013-04-07 08:51:00,
2013-04-07 04:56:00,42.3,37.8,29.09,NE,45,1.1,0.0,84,0.00,CLR,SKC,0.00,WeatherDisplay:10.37,2013-04-07 08:56:00,
2013-04-07 05:01:00,41.9,37.7,29.09,NE,45,0.0,0.0,85,0.00,CLR,SKC,0.00,WeatherDisplay:10.37,2013-04-07 09:01:00,
2013-04-07 05:06:00,41.7,37.5,29.09,NE,45,1.1,0.0,85,0.00,CLR,SKC,0.00,WeatherDisplay:10.37,2013-04-07 09:06:00,
2013-04-07 05:11:00,41.5,37.4,29.08,NW,315,1.1,0.0,85,0.00,CLR,SKC,0.00,WeatherDisplay:10.37,2013-04-07 09:11:00,
2013-04-07 05:17:00,41.5,37.7,29.09,NW,315,1.1,0.0,86,0.00,CLR,SKC,0.00,WeatherDisplay:10.37,2013-04-07 09:17:00,
2013-04-07 05:22:00,41.5,38.0,29.10,North,0,1.1,0.0,87,0.00,CLR,SKC,0.00,WeatherDisplay:10.37,2013-04-07 09:22:00,
2013-04-07 05:27:00,41.5,38.0,29.09,South,180,1.1,0.0,87,0.00,CLR,SKC,0.00,WeatherDisplay:10.37,2013-04-07 09:27:00,
2013-04-07 05:32:00,41.4,37.8,29.10,South,180,0.0,0.0,87,0.00,CLR,SKC,0.00,WeatherDisplay:10.37,2013-04-07 09:32:00,
2013-04-07 05:37:00,41.2,37.6,29.10,West,270,0.0,0.0,87,0.00,CLR,SKC,0.00,WeatherDisplay:10.37,2013-04-07 09:37:00,
2013-04-07 05:42:00,41.2,37.6,29.10,South,180,0.0,0.0,87,0.00,CLR,SKC,0.00,WeatherDisplay:10.37,2013-04-07 09:42:00,
2013-04-07 05:47:00,40.8,37.3,29.10,South,180,0.0,0.0,87,0.00,CLR,SKC,0.00,WeatherDisplay:10.37,2013-04-07 09:47:00,
2013-04-07 05:52:00,40.6,37.1,29.10,South,180,1.1,0.0,87,0.00,CLR,SKC,0.00,WeatherDisplay:10.37,2013-04-07 09:52:00,
2013-04-07 05:57:00,40.5,37.2,29.10,NE,45,1.1,0.0,88,0.00,CLR,SKC,0.00,WeatherDisplay:10.37,2013-04-07 09:57:00,
2013-04-07 06:02:00,40.3,37.3,29.10,North,0,0.0,0.0,89,0.00,CLR,SKC,0.00,WeatherDisplay:10.37,2013-04-07 10:02:00,
2013-04-07 06:07:00,40.3,37.3,29.11,North,0,0.0,0.0,89,0.00,CLR,SKC,0.00,WeatherDisplay:10.37,2013-04-07 10:07:00,
2013-04-07 06:12:00,40.1,37.4,29.11,South,180,1.1,0.0,90,0.00,CLR,SKC,0.00,WeatherDisplay:10.37,2013-04-07 10:12:00,
2013-04-07 06:17:00,40.1,37.7,29.11,South,180,1.1,0.0,91,0.00,CLR,SKC,0.00,WeatherDisplay:10.37,2013-04-07 10:17:00,
2013-04-07 06:23:00,39.7,37.0,29.11,North,0,1.1,0.0,90,0.00,CLR,SKC,0.00,WeatherDisplay:10.37,2013-04-07 10:23:00,
2013-04-07 06:28:00,39.7,37.3,29.11,NW,315,1.1,0.0,91,0.00,CLR,SKC,0.00,WeatherDisplay:10.37,2013-04-07 10:28:00,
2013-04-07 06:33:00,39.6,37.2,29.11,SE,135,1.1,0.0,91,0.00,CLR,SKC,0.00,WeatherDisplay:10.37,2013-04-07 10:33:00,
2013-04-07 06:38:00,39.4,37.2,29.12,SE,135,1.1,0.0,92,0.00,CLR,SKC,0.00,WeatherDisplay:10.37,2013-04-07 10:38:00,
2013-04-07 06:43:00,39.2,36.8,29.12,NW,315,1.1,0.0,91,0.00,CLR,SKC,0.00,WeatherDisplay:10.37,2013-04-07 10:43:00,
2013-04-07 06:48:00,38.8,36.4,29.12,NW,315,0.0,0.0,91,0.00,CLR,SKC,0.00,WeatherDisplay:10.37,2013-04-07 10:48:00,
2013-04-07 06:53:00,38.7,36.3,29.12,North,0,1.1,0.0,91,0.00,CLR,SKC,0.00,WeatherDisplay:10.37,2013-04-07 10:53:00,
2013-04-07 06:58:00,38.7,36.3,29.12,North,0,0.0,0.0,91,0.00,CLR,SKC,0.00,WeatherDisplay:10.37,2013-04-07 10:58:00,
2013-04-07 07:03:00,38.7,36.3,29.12,NW,315,0.0,0.0,91,0.00,CLR,SKC,0.00,WeatherDisplay:10.37,2013-04-07 11:03:00,
2013-04-07 07:08:00,38.5,36.6,29.12,NW,315,1.1,0.0,93,0.00,CLR,SKC,0.00,WeatherDisplay:10.37,2013-04-07 11:08:00,
2013-04-07 07:13:00,38.5,36.6,29.13,South,180,1.1,0.0,93,0.00,CLR,SKC,0.00,WeatherDisplay:10.37,2013-04-07 11:13:00,
2013-04-07 07:18:00,38.7,36.8,29.13,South,180,1.1,0.0,93,0.00,CLR,SKC,0.00,WeatherDisplay:10.37,2013-04-07 11:18:00,
2013-04-07 07:23:00,38.8,37.0,29.14,North,0,0.0,0.0,93,0.00,CLR,SKC,0.00,WeatherDisplay:10.37,2013-04-07 11:23:00,
2013-04-07 07:28:00,39.4,37.8,29.14,South,180,0.0,0.0,94,0.00,CLR,SKC,0.00,WeatherDisplay:10.37,2013-04-07 11:28:00,
2013-04-07 07:33:00,39.7,38.2,29.14,South,180,0.0,0.0,94,0.00,CLR,SKC,0.00,WeatherDisplay:10.37,2013-04-07 11:33:00,
2013-04-07 07:38:00,39.9,38.1,29.14,North,0,0.0,0.0,93,0.00,CLR,SKC,0.00,WeatherDisplay:10.37,2013-04-07 11:38:00,
2013-04-07 07:43:00,40.1,38.2,29.14,NW,315,0.0,0.0,93,0.00,CLR,SKC,0.00,WeatherDisplay:10.37,2013-04-07 11:43:00,
2013-04-07 07:48:00,40.8,38.4,29.14,South,180,0.0,0.0,91,0.00,CLR,SKC,0.00,WeatherDisplay:10.37,2013-04-07 11:48:00,
2013-04-07 07:53:00,41.4,38.9,29.14,South,180,0.0,0.0,91,0.00,CLR,SKC,0.00,WeatherDisplay:10.37,2013-04-07 11:53:00,
2013-04-07 07:59:00,42.1,39.4,29.14,South,180,1.1,0.0,90,0.00,CLR,SKC,0.00,WeatherDisplay:10.37,2013-04-07 11:59:00,
2013-04-07 08:04:00,42.1,39.1,29.14,South,180,0.0,0.0,89,0.00,CLR,SKC,0.00,WeatherDisplay:10.37,2013-04-07 12:04:00,
2013-04-07 08:10:00,42.6,39.0,29.14,North,0,0.0,0.0,87,0.00,CLR,SKC,0.00,WeatherDisplay:10.37,2013-04-07 12:10:00,
2013-04-07 08:15:00,43.2,39.3,29.15,SSE,158,0.0,0.0,86,0.00,CLR,SKC,0.00,WeatherDisplay:10.37,2013-04-07 12:15:00,
2013-04-07 08:20:00,43.7,39.5,29.15,North,0,0.0,0.0,85,0.00,CLR,SKC,0.00,WeatherDisplay:10.37,2013-04-07 12:20:00,
2013-04-07 08:25:00,44.6,40.1,29.15,South,180,1.1,0.0,84,0.00,CLR,SKC,0.00,WeatherDisplay:10.37,2013-04-07 12:25:00,
2013-04-07 08:30:00,45.5,40.6,29.15,North,0,1.1,0.0,83,0.00,CLR,SKC,0.00,WeatherDisplay:10.37,2013-04-07 12:30:00,
2013-04-07 08:35:00,46.6,41.7,29.16,South,180,1.1,0.0,83,0.00,CLR,SKC,0.00,WeatherDisplay:10.37,2013-04-07 12:35:00,
2013-04-07 08:40:00,47.1,41.3,29.16,South,180,0.0,0.0,80,0.00,CLR,SKC,0.00,WeatherDisplay:10.37,2013-04-07 12:40:00,
2013-04-07 08:45:00,47.8,41.3,29.16,South,180,1.1,0.0,78,0.00,CLR,SKC,0.00,WeatherDisplay:10.37,2013-04-07 12:45:00,
2013-04-07 08:50:00,48.7,42.2,29.16,NE,45,1.1,0.0,78,0.00,CLR,SKC,0.00,WeatherDisplay:10.37,2013-04-07 12:50:00,
2013-04-07 08:55:00,50.0,42.7,29.16,North,0,0.0,0.0,76,0.00,CLR,SKC,0.00,WeatherDisplay:10.37,2013-04-07 12:55:00,
2013-04-07 09:00:00,50.5,42.9,29.16,NW,315,0.0,0.0,75,0.00,CLR,SKC,0.00,WeatherDisplay:10.37,2013-04-07 13:00:00,
2013-04-07 09:05:00,51.1,43.1,29.16,North,0,0.0,0.0,74,0.00,CLR,SKC,0.00,WeatherDisplay:10.37,2013-04-07 13:05:00,
2013-04-07 09:10:00,52.3,43.6,29.16,South,180,0.0,0.0,72,0.00,CLR,SKC,0.00,WeatherDisplay:10.37,2013-04-07 13:10:00,
2013-04-07 09:15:00,54.0,44.0,29.16,South,180,0.0,0.0,69,0.00,CLR,SKC,0.00,WeatherDisplay:10.37,2013-04-07 13:15:00,
2013-04-07 09:21:00,55.2,43.2,29.16,South,180,0.0,0.0,64,0.00,CLR,SKC,0.00,WeatherDisplay:10.37,2013-04-07 13:21:00,
2013-04-07 09:26:00,56.3,44.3,29.16,North,0,0.0,0.0,64,0.00,CLR,SKC,0.00,WeatherDisplay:10.37,2013-04-07 13:26:00,
2013-04-07 09:31:00,57.0,43.3,29.16,SE,135,0.0,0.0,60,0.00,CLR,SKC,0.00,WeatherDisplay:10.37,2013-04-07 13:31:00,
2013-04-07 09:36:00,57.6,43.8,29.16,North,0,0.0,0.0,60,0.00,CLR,SKC,0.00,WeatherDisplay:10.37,2013-04-07 13:36:00,
2013-04-07 09:41:00,59.0,44.2,29.16,West,270,0.0,0.0,58,0.00,CLR,SKC,0.00,WeatherDisplay:10.37,2013-04-07 13:41:00,
2013-04-07 09:46:00,59.7,44.0,29.16,West,270,0.0,0.0,56,0.00,CLR,SKC,0.00,WeatherDisplay:10.37,2013-04-07 13:46:00,
2013-04-07 09:51:00,60.6,43.9,29.16,West,270,0.0,0.0,54,0.00,CLR,SKC,0.00,WeatherDisplay:10.37,2013-04-07 13:51:00,
2013-04-07 09:57:00,61.9,44.6,29.15,NE,45,0.0,0.0,53,0.00,CLR,SKC,0.00,WeatherDisplay:10.37,2013-04-07 13:57:00,
2013-04-07 10:03:00,62.8,44.4,29.15,NE,45,0.0,0.0,51,0.00,CLR,SKC,0.00,WeatherDisplay:10.37,2013-04-07 14:03:00,
2013-04-07 10:08:00,62.4,43.5,29.15,South,180,0.0,0.0,50,0.00,CLR,SKC,0.00,WeatherDisplay:10.37,2013-04-07 14:08:00,
2013-04-07 10:13:00,62.2,42.3,29.15,North,0,0.0,0.0,48,0.00,CLR,SKC,0.00,WeatherDisplay:10.37,2013-04-07 14:13:00,
2013-04-07 10:18:00,62.1,42.7,29.15,North,0,0.0,0.0,49,0.00,CLR,SKC,0.00,WeatherDisplay:10.37,2013-04-07 14:18:00,
2013-04-07 10:23:00,61.5,42.7,29.15,SE,135,0.0,0.0,50,0.00,CLR,SKC,0.00,WeatherDisplay:10.37,2013-04-07 14:23:00,
2013-04-07 10:28:00,63.0,44.5,29.14,South,180,0.0,0.0,51,0.00,CLR,SKC,0.00,WeatherDisplay:10.37,2013-04-07 14:28:00,
2013-04-07 10:33:00,63.7,44.2,29.14,South,180,0.0,0.0,49,0.00,CLR,SKC,0.00,WeatherDisplay:10.37,2013-04-07 14:33:00,
2013-04-07 10:38:00,63.3,43.3,29.14,SE,135,0.0,0.0,48,0.00,CLR,SKC,0.00,WeatherDisplay:10.37,2013-04-07 14:38:00,
2013-04-07 10:43:00,64.2,44.1,29.13,East,90,0.0,0.0,48,0.00,CLR,SKC,0.00,WeatherDisplay:10.37,2013-04-07 14:43:00,
2013-04-07 10:49:00,65.1,44.4,29.13,South,180,0.0,0.0,47,0.00,CLR,SKC,0.00,WeatherDisplay:10.37,2013-04-07 14:49:00,
2013-04-07 10:54:00,63.3,42.7,29.13,NW,315,0.0,0.0,47,0.00,CLR,SKC,0.00,WeatherDisplay:10.37,2013-04-07 14:54:00,
2013-04-07 10:59:00,63.1,42.6,29.13,West,270,0.0,0.0,47,0.00,CLR,SKC,0.00,WeatherDisplay:10.37,2013-04-07 14:59:00,
2013-04-07 11:04:00,65.1,44.9,29.13,North,0,0.0,0.0,48,0.00,CLR,SKC,0.00,WeatherDisplay:10.37,2013-04-07 15:04:00,
2013-04-07 11:09:00,65.1,43.2,29.12,North,0,0.0,0.0,45,0.00,CLR,SKC,0.00,WeatherDisplay:10.37,2013-04-07 15:09:00,
2013-04-07 11:14:00,65.1,43.8,29.12,SW,225,0.0,0.0,46,0.00,CLR,SKC,0.00,WeatherDisplay:10.37,2013-04-07 15:14:00,
2013-04-07 11:19:00,65.7,43.1,29.12,South,180,0.0,0.0,44,0.00,CLR,SKC,0.00,WeatherDisplay:10.37,2013-04-07 15:19:00,
2013-04-07 11:25:00,67.1,45.0,29.12,West,270,0.0,0.0,45,0.00,CLR,SKC,0.00,WeatherDisplay:10.37,2013-04-07 15:25:00,
2013-04-07 11:30:00,69.0,45.6,29.12,NNE,27,0.0,0.0,43,0.00,CLR,SKC,0.00,WeatherDisplay:10.37,2013-04-07 15:30:00,
2013-04-07 11:35:00,68.7,42.8,29.12,NE,45,0.0,0.0,39,0.00,CLR,SKC,0.00,WeatherDisplay:10.37,2013-04-07 15:35:00,
2013-04-07 11:40:00,69.4,43.4,29.11,NW,315,0.0,0.0,39,0.00,CLR,SKC,0.00,WeatherDisplay:10.37,2013-04-07 15:40:00,
2013-04-07 11:45:00,69.8,41.6,29.11,SW,225,0.0,0.0,36,0.00,CLR,SKC,0.00,WeatherDisplay:10.37,2013-04-07 15:45:00,
2013-04-07 11:50:00,67.1,42.6,29.10,South,180,0.0,0.0,41,0.00,CLR,SKC,0.00,WeatherDisplay:10.37,2013-04-07 15:50:00,
2013-04-07 11:55:00,66.9,44.3,29.10,North,0,0.0,0.0,44,0.00,CLR,SKC,0.00,WeatherDisplay:10.37,2013-04-07 15:55:00,
2013-04-07 12:01:00,68.4,44.4,29.10,North,0,0.0,0.0,42,0.00,CLR,SKC,0.00,WeatherDisplay:10.37,2013-04-07 16:01:00,
2013-04-07 12:06:00,69.8,44.4,29.10,West,270,0.0,0.0,40,0.00,CLR,SKC,0.00,WeatherDisplay:10.37,2013-04-07 16:06:00,
2013-04-07 12:12:00,70.7,42.4,29.09,North,0,0.0,0.0,36,0.00,CLR,SKC,0.00,WeatherDisplay:10.37,2013-04-07 16:12:00,
2013-04-07 12:17:00,71.1,42.0,29.09,South,180,0.0,0.0,35,0.00,CLR,SKC,0.00,WeatherDisplay:10.37,2013-04-07 16:17:00,
2013-04-07 12:23:00,71.1,42.0,29.08,South,180,0.0,0.0,35,0.00,CLR,SKC,0.00,WeatherDisplay:10.37,2013-04-07 16:23:00,
2013-04-07 12:28:00,69.6,41.5,29.07,South,180,0.0,0.0,36,0.00,CLR,SKC,0.00,WeatherDisplay:10.37,2013-04-07 16:28:00,
2013-04-07 12:33:00,67.8,43.2,29.07,NW,315,0.0,0.0,41,0.00,CLR,SKC,0.00,WeatherDisplay:10.37,2013-04-07 16:33:00,
2013-04-07 12:38:00,68.5,43.9,29.07,NW,315,0.0,0.0,41,0.00,CLR,SKC,0.00,WeatherDisplay:10.37,2013-04-07 16:38:00,
2013-04-07 12:43:00,71.2,42.9,29.06,NW,315,0.0,0.0,36,0.00,CLR,SKC,0.00,WeatherDisplay:10.37,2013-04-07 16:43:00,
2013-04-07 12:48:00,72.3,43.1,29.06,East,90,0.0,0.0,35,0.00,CLR,SKC,0.00,WeatherDisplay:10.37,2013-04-07 16:48:00,
2013-04-07 12:53:00,72.5,42.5,29.06,North,0,0.0,0.0,34,0.00,CLR,SKC,0.00,WeatherDisplay:10.37,2013-04-07 16:53:00,
2013-04-07 12:58:00,73.2,43.9,29.05,North,0,0.0,0.0,35,0.00,CLR,SKC,0.00,WeatherDisplay:10.37,2013-04-07 16:58:00,
2013-04-07 13:03:00,71.8,41.1,29.05,SW,225,0.0,0.0,33,0.00,CLR,SKC,0.00,WeatherDisplay:10.37,2013-04-07 17:03:00,
2013-04-07 13:08:00,70.9,43.3,29.05,SW,225,0.0,0.0,37,0.00,CLR,SKC,0.00,WeatherDisplay:10.37,2013-04-07 17:08:00,
2013-04-07 13:13:00,72.5,45.4,29.04,NE,45,0.0,0.0,38,0.00,CLR,SKC,0.00,WeatherDisplay:10.37,2013-04-07 17:13:00,
2013-04-07 13:18:00,74.7,44.4,29.04,NW,315,0.0,0.0,34,0.00,CLR,SKC,0.00,WeatherDisplay:10.37,2013-04-07 17:18:00,
2013-04-07 13:23:00,74.7,44.4,29.03,SW,225,0.0,0.0,34,0.00,CLR,SKC,0.00,WeatherDisplay:10.37,2013-04-07 17:23:00,
2013-04-07 13:28:00,74.5,44.3,29.02,SW,225,0.0,0.0,34,0.00,CLR,SKC,0.00,WeatherDisplay:10.37,2013-04-07 17:28:00,
2013-04-07 13:33:00,75.0,44.7,29.02,North,0,0.0,0.0,34,0.00,CLR,SKC,0.00,WeatherDisplay:10.37,2013-04-07 17:33:00,
2013-04-07 13:38:00,75.0,43.1,29.01,ESE,112,0.0,0.0,32,0.00,CLR,SKC,0.00,WeatherDisplay:10.37,2013-04-07 17:38:00,
2013-04-07 13:43:00,75.0,44.7,29.00,North,0,0.0,0.0,34,0.00,CLR,SKC,0.00,WeatherDisplay:10.37,2013-04-07 17:43:00,
2013-04-07 13:49:00,74.7,42.8,29.00,NE,45,0.0,0.0,32,0.00,CLR,SKC,0.00,WeatherDisplay:10.37,2013-04-07 17:49:00,
2013-04-07 13:54:00,75.0,44.7,29.00,North,0,0.0,0.0,34,0.00,CLR,SKC,0.00,WeatherDisplay:10.37,2013-04-07 17:54:00,
2013-04-07 13:59:00,76.3,44.2,29.00,East,90,0.0,0.0,32,0.00,CLR,SKC,0.00,WeatherDisplay:10.37,2013-04-07 17:59:00,
2013-04-07 14:04:00,76.3,44.2,28.98,East,90,0.0,0.0,32,0.00,CLR,SKC,0.00,WeatherDisplay:10.37,2013-04-07 18:04:00,
2013-04-07 14:09:00,76.1,44.1,28.99,South,180,0.0,0.0,32,0.00,CLR,SKC,0.00,WeatherDisplay:10.37,2013-04-07 18:09:00,
2013-04-07 14:14:00,77.0,44.9,28.98,NE,45,0.0,0.0,32,0.00,CLR,SKC,0.00,WeatherDisplay:10.37,2013-04-07 18:14:00,
2013-04-07 14:19:00,77.2,44.2,28.98,NNW,338,0.0,0.0,31,0.00,CLR,SKC,0.00,WeatherDisplay:10.37,2013-04-07 18:19:00,
2013-04-07 14:25:00,76.6,42.9,28.97,South,180,0.0,0.0,30,0.00,CLR,SKC,0.00,WeatherDisplay:10.37,2013-04-07 18:25:00,
2013-04-07 14:30:00,76.6,44.6,28.97,North,0,0.0,0.0,32,0.00,CLR,SKC,0.00,WeatherDisplay:10.37,2013-04-07 18:30:00,
2013-04-07 14:35:00,76.6,44.6,28.96,North,0,0.0,0.0,32,0.00,CLR,SKC,0.00,WeatherDisplay:10.37,2013-04-07 18:35:00,
2013-04-07 14:40:00,77.7,43.8,28.96,South,180,0.0,0.0,30,0.00,CLR,SKC,0.00,WeatherDisplay:10.37,2013-04-07 18:40:00,
2013-04-07 14:45:00,77.7,46.3,28.95,SW,225,0.0,0.0,33,0.00,CLR,SKC,0.00,WeatherDisplay:10.37,2013-04-07 18:45:00,
2013-04-07 14:50:00,78.3,43.4,28.95,West,270,0.0,0.0,29,0.00,CLR,SKC,0.00,WeatherDisplay:10.37,2013-04-07 18:50:00,
2013-04-07 14:55:00,78.4,43.5,28.94,NW,315,0.0,0.0,29,0.00,CLR,SKC,0.00,WeatherDisplay:10.37,2013-04-07 18:55:00,
2013-04-07 15:00:00,78.3,43.4,28.94,NW,312,0.0,0.0,29,0.00,CLR,SKC,0.00,WeatherDisplay:10.37,2013-04-07 19:00:00,
2013-04-07 15:05:00,78.4,46.1,28.94,SE,135,0.0,0.0,32,0.00,CLR,SKC,0.00,WeatherDisplay:10.37,2013-04-07 19:05:00,
2013-04-07 15:10:00,78.4,46.1,28.94,NW,315,0.0,0.0,32,0.00,CLR,SKC,0.00,WeatherDisplay:10.37,2013-04-07 19:10:00,
2013-04-07 15:15:00,78.3,46.0,28.93,South,180,0.0,0.0,32,0.00,CLR,SKC,0.00,WeatherDisplay:10.37,2013-04-07 19:15:00,
2013-04-07 15:20:00,77.4,44.4,28.93,NW,315,0.0,0.0,31,0.00,CLR,SKC,0.00,WeatherDisplay:10.37,2013-04-07 19:20:00,
2013-04-07 15:25:00,77.5,46.9,28.93,SW,225,0.0,0.0,34,0.00,CLR,SKC,0.00,WeatherDisplay:10.37,2013-04-07 19:25:00,
2013-04-07 15:30:00,78.1,45.8,28.93,West,270,0.0,0.0,32,0.00,CLR,SKC,0.00,WeatherDisplay:10.37,2013-04-07 19:30:00,
2013-04-07 15:35:00,78.3,46.0,28.93,South,180,0.0,0.0,32,0.00,CLR,SKC,0.00,WeatherDisplay:10.37,2013-04-07 19:35:00,
2013-04-07 15:40:00,78.3,44.3,28.93,NE,45,0.0,0.0,30,0.00,CLR,SKC,0.00,WeatherDisplay:10.37,2013-04-07 19:40:00,
2013-04-07 15:46:00,77.5,45.3,28.93,NW,315,0.0,0.0,32,0.00,CLR,SKC,0.00,WeatherDisplay:10.37,2013-04-07 19:46:00,
2013-04-07 15:51:00,76.6,43.7,28.93,NW,315,0.0,0.0,31,0.00,CLR,SKC,0.00,WeatherDisplay:10.37,2013-04-07 19:51:00,
2013-04-07 15:56:00,74.7,44.4,28.92,North,0,0.0,0.0,34,0.00,CLR,SKC,0.00,WeatherDisplay:10.37,2013-04-07 19:56:00,
2013-04-07 16:01:00,74.1,46.2,28.92,North,10,0.0,0.0,37,0.00,CLR,SKC,0.00,WeatherDisplay:10.37,2013-04-07 20:01:00,
2013-04-07 16:06:00,74.1,46.2,28.93,North,0,0.0,0.0,37,0.00,CLR,SKC,0.00,WeatherDisplay:10.37,2013-04-07 20:06:00,
2013-04-07 16:12:00,73.8,45.9,28.93,South,180,0.0,0.0,37,0.00,CLR,SKC,0.00,WeatherDisplay:10.37,2013-04-07 20:12:00,
2013-04-07 16:17:00,73.8,45.1,28.92,South,180,0.0,0.0,36,0.00,CLR,SKC,0.00,WeatherDisplay:10.37,2013-04-07 20:17:00,
2013-04-07 16:22:00,73.6,45.0,28.92,North,0,0.0,0.0,36,0.00,CLR,SKC,0.00,WeatherDisplay:10.37,2013-04-07 20:22:00,
2013-04-07 16:27:00,73.2,46.1,28.92,SW,225,0.0,0.0,38,0.00,CLR,SKC,0.00,WeatherDisplay:10.37,2013-04-07 20:27:00,
2013-04-07 16:32:00,72.9,44.3,28.92,West,270,0.0,0.0,36,0.00,CLR,SKC,0.00,WeatherDisplay:10.37,2013-04-07 20:32:00,
2013-04-07 16:37:00,72.5,44.7,28.92,SW,225,0.0,0.0,37,0.00,CLR,SKC,0.00,WeatherDisplay:10.37,2013-04-07 20:37:00,
2013-04-07 16:42:00,72.3,44.6,28.91,South,180,0.0,0.0,37,0.00,CLR,SKC,0.00,WeatherDisplay:10.37,2013-04-07 20:42:00,
2013-04-07 16:47:00,72.5,45.4,28.91,South,180,0.0,0.0,38,0.00,CLR,SKC,0.00,WeatherDisplay:10.37,2013-04-07 20:47:00,
2013-04-07 16:52:00,72.7,45.6,28.91,SE,135,0.0,0.0,38,0.00,CLR,SKC,0.00,WeatherDisplay:10.37,2013-04-07 20:52:00,
2013-04-07 16:57:00,72.3,43.9,28.91,South,180,0.0,0.0,36,0.00,CLR,SKC,0.00,WeatherDisplay:10.37,2013-04-07 20:57:00,
2013-04-07 17:02:00,71.8,44.8,28.91,NW,315,0.0,0.0,38,0.00,CLR,SKC,0.00,WeatherDisplay:10.37,2013-04-07 21:02:00,
2013-04-07 17:07:00,71.4,45.2,28.92,SE,135,0.0,0.0,39,0.00,CLR,SKC,0.00,WeatherDisplay:10.37,2013-04-07 21:07:00,
2013-04-07 17:13:00,71.1,45.5,28.92,SE,135,0.0,0.0,40,0.00,CLR,SKC,0.00,WeatherDisplay:10.37,2013-04-07 21:13:00,
2013-04-07 17:18:00,70.7,46.5,28.92,East,90,0.0,0.0,42,0.00,CLR,SKC,0.00,WeatherDisplay:10.37,2013-04-07 21:18:00,
2013-04-07 17:23:00,70.7,46.5,28.92,NW,315,0.0,0.0,42,0.00,CLR,SKC,0.00,WeatherDisplay:10.37,2013-04-07 21:23:00,
2013-04-07 17:28:00,70.9,47.3,28.91,West,270,0.0,0.0,43,0.00,CLR,SKC,0.00,WeatherDisplay:10.37,2013-04-07 21:28:00,
2013-04-07 17:33:00,70.9,46.0,28.92,SW,225,0.0,0.0,41,0.00,CLR,SKC,0.00,WeatherDisplay:10.37,2013-04-07 21:33:00,
2013-04-07 17:38:00,70.9,45.3,28.91,South,180,0.0,0.0,40,0.00,CLR,SKC,0.00,WeatherDisplay:10.37,2013-04-07 21:38:00,
2013-04-07 17:43:00,70.7,45.8,28.92,SW,225,0.0,0.0,41,0.00,CLR,SKC,0.00,WeatherDisplay:10.37,2013-04-07 21:43:00,
2013-04-07 17:48:00,70.7,46.5,28.92,SE,135,0.0,0.0,42,0.00,CLR,SKC,0.00,WeatherDisplay:10.37,2013-04-07 21:48:00,
2013-04-07 17:53:00,70.5,46.3,28.92,SW,225,0.0,0.0,42,0.00,CLR,SKC,0.00,WeatherDisplay:10.37,2013-04-07 21:53:00,
2013-04-07 17:58:00,70.5,46.3,28.92,West,270,0.0,0.0,42,0.00,CLR,SKC,0.00,WeatherDisplay:10.37,2013-04-07 21:58:00,
2013-04-07 18:03:00,70.3,45.5,28.92,SW,225,0.0,0.0,41,0.00,CLR,SKC,0.00,WeatherDisplay:10.37,2013-04-07 22:03:00,
2013-04-07 18:08:00,70.0,45.8,28.92,SW,225,0.0,0.0,42,0.00,CLR,SKC,0.00,WeatherDisplay:10.37,2013-04-07 22:08:00,
2013-04-07 18:13:00,69.8,45.7,28.93,SW,225,0.0,0.0,42,0.00,CLR,SKC,0.00,WeatherDisplay:10.37,2013-04-07 22:13:00,
2013-04-07 18:18:00,69.8,45.7,28.92,West,270,0.0,0.0,42,0.00,CLR,SKC,0.00,WeatherDisplay:10.37,2013-04-07 22:18:00,
2013-04-07 18:23:00,69.8,45.0,28.93,West,270,0.0,0.0,41,0.00,CLR,SKC,0.00,WeatherDisplay:10.37,2013-04-07 22:23:00,
2013-04-07 18:28:00,69.6,45.5,28.93,South,180,0.0,0.0,42,0.00,CLR,SKC,0.00,WeatherDisplay:10.37,2013-04-07 22:28:00,
2013-04-07 18:33:00,69.4,45.3,28.93,SE,135,0.0,0.0,42,0.00,CLR,SKC,0.00,WeatherDisplay:10.37,2013-04-07 22:33:00,
2013-04-07 18:38:00,69.1,45.6,28.93,SW,225,0.0,0.0,43,0.00,CLR,SKC,0.00,WeatherDisplay:10.37,2013-04-07 22:38:00,
2013-04-07 18:43:00,68.9,45.5,28.94,SE,135,0.0,0.0,43,0.00,CLR,SKC,0.00,WeatherDisplay:10.37,2013-04-07 22:43:00,
2013-04-07 18:48:00,68.7,45.9,28.93,South,180,0.0,0.0,44,0.00,CLR,SKC,0.00,WeatherDisplay:10.37,2013-04-07 22:48:00,
2013-04-07 18:53:00,68.7,45.9,28.93,SW,225,0.0,0.0,44,0.00,CLR,SKC,0.00,WeatherDisplay:10.37,2013-04-07 22:53:00,
2013-04-07 18:58:00,68.2,46.0,28.94,SW,225,0.0,0.0,45,0.00,CLR,SKC,0.00,WeatherDisplay:10.37,2013-04-07 22:58:00,
2013-04-07 19:03:00,68.2,46.0,28.94,South,180,0.0,0.0,45,0.00,CLR,SKC,0.00,WeatherDisplay:10.37,2013-04-07 23:03:00,
2013-04-07 19:08:00,68.0,45.9,28.94,West,270,0.0,0.0,45,0.00,CLR,SKC,0.00,WeatherDisplay:10.37,2013-04-07 23:08:00,
2013-04-07 19:13:00,67.8,45.7,28.94,SE,135,0.0,0.0,45,0.00,CLR,SKC,0.00,WeatherDisplay:10.37,2013-04-07 23:13:00,
2013-04-07 19:18:00,67.6,46.1,28.94,South,180,0.0,0.0,46,0.00,CLR,SKC,0.00,WeatherDisplay:10.37,2013-04-07 23:18:00,
2013-04-07 19:23:00,67.3,46.4,28.94,SW,225,0.0,0.0,47,0.00,CLR,SKC,0.00,WeatherDisplay:10.37,2013-04-07 23:23:00,
2013-04-07 19:29:00,66.9,46.0,28.94,South,180,0.0,0.0,47,0.00,CLR,SKC,0.00,WeatherDisplay:10.37,2013-04-07 23:29:00,
2013-04-07 19:34:00,66.9,46.0,28.94,SW,225,0.0,0.0,47,0.00,CLR,SKC,0.00,WeatherDisplay:10.37,2013-04-07 23:34:00,
2013-04-07 19:39:00,66.7,45.9,28.94,South,180,0.0,0.0,47,0.00,CLR,SKC,0.00,WeatherDisplay:10.37,2013-04-07 23:39:00,
2013-04-07 19:44:00,66.2,45.4,28.94,SW,225,0.0,0.0,47,0.00,CLR,SKC,0.00,WeatherDisplay:10.37,2013-04-07 23:44:00,
2013-04-07 19:49:00,66.0,45.8,28.95,SW,225,0.0,0.0,48,0.00,CLR,SKC,0.00,WeatherDisplay:10.37,2013-04-07 23:49:00,
2013-04-07 19:55:00,65.3,45.6,28.95,West,270,0.0,0.0,49,0.00,CLR,SKC,0.00,WeatherDisplay:10.37,2013-04-07 23:55:00,
2013-04-07 20:00:00,64.9,45.3,28.95,West,270,1.1,0.0,49,0.00,CLR,SKC,0.00,WeatherDisplay:10.37,2013-04-08 00:00:00,
2013-04-07 20:05:00,64.6,45.0,28.95,SE,135,1.1,0.0,49,0.00,CLR,SKC,0.00,WeatherDisplay:10.37,2013-04-08 00:05:00,
2013-04-07 20:10:00,64.0,44.5,28.96,SE,135,0.0,0.0,49,0.00,CLR,SKC,0.00,WeatherDisplay:10.37,2013-04-08 00:10:00,
2013-04-07 20:15:00,63.7,45.2,28.96,NE,45,0.0,0.0,51,0.00,CLR,SKC,0.00,WeatherDisplay:10.37,2013-04-08 00:15:00,
2013-04-07 20:20:00,63.7,45.2,28.96,NE,45,0.0,0.0,51,0.00,CLR,SKC,0.00,WeatherDisplay:10.37,2013-04-08 00:20:00,
2013-04-07 20:25:00,63.1,45.2,28.96,NE,45,0.0,0.0,52,0.00,CLR,SKC,0.00,WeatherDisplay:10.37,2013-04-08 00:25:00,
2013-04-07 20:30:00,62.6,44.7,28.97,NE,45,0.0,0.0,52,0.00,CLR,SKC,0.00,WeatherDisplay:10.37,2013-04-08 00:30:00,
2013-04-07 20:35:00,62.2,44.9,28.97,NE,45,0.0,0.0,53,0.00,CLR,SKC,0.00,WeatherDisplay:10.37,2013-04-08 00:35:00,
2013-04-07 20:40:00,61.9,45.5,28.97,South,180,1.1,0.0,55,0.00,CLR,SKC,0.00,WeatherDisplay:10.37,2013-04-08 00:40:00,
2013-04-07 20:45:00,61.2,44.9,28.97,North,0,0.0,0.0,55,0.00,CLR,SKC,0.00,WeatherDisplay:10.37,2013-04-08 00:45:00,
2013-04-07 20:50:00,61.0,45.2,28.97,North,0,0.0,0.0,56,0.00,CLR,SKC,0.00,WeatherDisplay:10.37,2013-04-08 00:50:00,
2013-04-07 20:55:00,60.8,45.5,28.97,SW,225,0.0,0.0,57,0.00,CLR,SKC,0.00,WeatherDisplay:10.37,2013-04-08 00:55:00,
2013-04-07 21:01:00,60.6,45.3,28.97,North,0,0.0,0.0,57,0.00,CLR,SKC,0.00,WeatherDisplay:10.37,2013-04-08 01:01:00,
2013-04-07 21:06:00,60.4,45.1,28.97,North,0,0.0,0.0,57,0.00,CLR,SKC,0.00,WeatherDisplay:10.37,2013-04-08 01:06:00,
2013-04-07 21:11:00,60.4,45.1,28.97,North,0,0.0,0.0,57,0.00,CLR,SKC,0.00,WeatherDisplay:10.37,2013-04-08 01:11:00,
2013-04-07 21:16:00,59.7,45.4,28.97,North,0,0.0,0.0,59,0.00,CLR,SKC,0.00,WeatherDisplay:10.37,2013-04-08 01:16:00,
2013-04-07 21:21:00,59.4,45.9,28.97,North,0,0.0,0.0,61,0.00,CLR,SKC,0.00,WeatherDisplay:10.37,2013-04-08 01:21:00,
2013-04-07 21:26:00,59.0,45.6,28.97,North,0,2.3,0.0,61,0.00,CLR,SKC,0.00,WeatherDisplay:10.37,2013-04-08 01:26:00,
2013-04-07 21:32:00,58.6,46.1,28.97,SW,225,0.0,0.0,63,0.00,CLR,SKC,0.00,WeatherDisplay:10.37,2013-04-08 01:32:00,
2013-04-07 21:37:00,58.1,46.0,28.98,South,180,0.0,0.0,64,0.00,CLR,SKC,0.00,WeatherDisplay:10.37,2013-04-08 01:37:00,
2013-04-07 21:42:00,57.9,45.8,28.98,North,0,0.0,0.0,64,0.00,CLR,SKC,0.00,WeatherDisplay:10.37,2013-04-08 01:42:00,
2013-04-07 21:47:00,57.6,45.9,28.98,NE,45,0.0,0.0,65,0.00,CLR,SKC,0.00,WeatherDisplay:10.37,2013-04-08 01:47:00,
2013-04-07 21:52:00,57.4,45.7,28.98,South,180,0.0,0.0,65,0.00,CLR,SKC,0.00,WeatherDisplay:10.37,2013-04-08 01:52:00,
2013-04-07 21:57:00,57.0,46.2,28.97,South,180,0.0,0.0,67,0.00,CLR,SKC,0.00,WeatherDisplay:10.37,2013-04-08 01:57:00,
2013-04-07 22:02:00,56.7,45.8,28.98,South,180,1.1,0.0,67,0.00,CLR,SKC,0.00,WeatherDisplay:10.37,2013-04-08 02:02:00,
2013-04-07 22:07:00,56.7,45.8,28.98,South,180,1.1,0.0,67,0.00,CLR,SKC,0.00,WeatherDisplay:10.37,2013-04-08 02:07:00,
2013-04-07 22:12:00,55.9,45.9,28.98,SW,225,1.1,0.0,69,0.00,CLR,SKC,0.00,WeatherDisplay:10.37,2013-04-08 02:12:00,
2013-04-07 22:17:00,55.8,45.7,28.98,NW,315,1.1,0.0,69,0.00,CLR,SKC,0.00,WeatherDisplay:10.37,2013-04-08 02:17:00,
2013-04-07 22:22:00,55.4,45.4,28.98,NW,315,1.1,0.0,69,0.00,CLR,SKC,0.00,WeatherDisplay:10.37,2013-04-08 02:22:00,
2013-04-07 22:27:00,55.2,45.6,28.98,South,180,1.1,0.0,70,0.00,CLR,SKC,0.00,WeatherDisplay:10.37,2013-04-08 02:27:00,
2013-04-07 22:32:00,54.9,45.6,28.98,South,180,1.1,0.0,71,0.00,CLR,SKC,0.00,WeatherDisplay:10.37,2013-04-08 02:32:00,
2013-04-07 22:38:00,54.5,45.3,28.98,South,180,0.0,0.0,71,0.00,CLR,SKC,0.00,WeatherDisplay:10.37,2013-04-08 02:38:00,
2013-04-07 22:43:00,54.1,44.9,28.98,South,180,0.0,0.0,71,0.00,CLR,SKC,0.00,WeatherDisplay:10.37,2013-04-08 02:43:00,
2013-04-07 22:48:00,53.8,45.3,28.98,South,180,0.0,0.0,73,0.00,CLR,SKC,0.00,WeatherDisplay:10.37,2013-04-08 02:48:00,
2013-04-07 22:53:00,53.6,45.2,28.98,South,180,0.0,0.0,73,0.00,CLR,SKC,0.00,WeatherDisplay:10.37,2013-04-08 02:53:00,
2013-04-07 22:58:00,53.4,45.0,28.98,South,180,1.1,0.0,73,0.00,CLR,SKC,0.00,WeatherDisplay:10.37,2013-04-08 02:58:00,
2013-04-07 23:03:00,53.1,44.6,28.98,South,180,0.0,0.0,73,0.00,CLR,SKC,0.00,WeatherDisplay:10.37,2013-04-08 03:03:00,
2013-04-07 23:09:00,52.9,44.8,28.98,South,180,0.0,0.0,74,0.00,CLR,SKC,0.00,WeatherDisplay:10.37,2013-04-08 03:09:00,
2013-04-07 23:14:00,52.5,44.8,28.98,South,180,0.0,0.0,75,0.00,CLR,SKC,0.00,WeatherDisplay:10.37,2013-04-08 03:14:00,
2013-04-07 23:19:00,52.3,44.6,28.98,South,180,1.1,0.0,75,0.00,CLR,SKC,0.00,WeatherDisplay:10.37,2013-04-08 03:19:00,
2013-04-07 23:24:00,52.0,44.6,28.98,South,180,1.1,0.0,76,0.00,CLR,SKC,0.00,WeatherDisplay:10.37,2013-04-08 03:24:00,
2013-04-07 23:29:00,51.8,44.8,28.98,South,180,0.0,0.0,77,0.00,CLR,SKC,0.00,WeatherDisplay:10.37,2013-04-08 03:29:00,
2013-04-07 23:35:00,51.6,45.0,28.98,South,180,0.0,0.0,78,0.00,CLR,SKC,0.00,WeatherDisplay:10.37,2013-04-08 03:35:00,
2013-04-07 23:40:00,51.3,44.6,28.98,South,180,0.0,0.0,78,0.00,CLR,SKC,0.00,WeatherDisplay:10.37,2013-04-08 03:40:00,
2013-04-07 23:45:00,51.1,45.1,28.97,South,180,0.0,0.0,80,0.00,CLR,SKC,0.00,WeatherDisplay:10.37,2013-04-08 03:45:00,
2013-04-07 23:50:00,50.9,45.3,28.98,South,180,1.1,0.0,81,0.00,CLR,SKC,0.00,WeatherDisplay:10.37,2013-04-08 03:50:00,
2013-04-07 23:55:00,50.7,45.1,28.98,South,180,0.0,0.0,81,0.00,CLR,SKC,0.00,WeatherDisplay:10.37,2013-04-08 03:55:00,